Weather History for Idabel, OK

Change the Weather History Date:

Tuesday, April 23, 2013

  Actual Average (KDEQ) Record (KDEQ)
Temperature  
Mean Temperature 58 °F 63 °F  
Max Temperature 73 °F 76 °F 89 °F (1976)
Min Temperature 42 °F 51 °F 35 °F (1993)
Degree Days  
Heating Degree Days 6 3  
Month to date heating degree days 135  
Since 1 July heating degree days 3003  
Cooling Degree Days 0 2  
Month to date cooling degree days 24  
Year to date cooling degree days 35  
Growing Degree Days 8 (Base 50)    
Moisture  
Dew Point 47 °F    
Average Humidity 73    
Maximum Humidity 81    
Minimum Humidity 61    
Precipitation  
Precipitation 0.00 in 0.14 in 2.95 in (1964)
Month to date precipitation 2.73  
Year to date precipitation 14.37  
Snow  
Snow 0.00 in - - ()
Month to date snowfall  
Since 1 July snowfall  
Snow Depth -    
Sea Level Pressure  
Sea Level Pressure 29.99 in    
Wind  
Wind Speed 14 mph (WNW)    
Max Wind Speed 17 mph    
Max Gust Speed 24 mph    
Visibility 10 miles    
Events      
T = Trace of Precipitation, MM = Missing Value Source: NWS Daily Summary

Daily Weather History Graph

Daily Weather History Graph

Search for Another Location

Airport:

Trip Planner

Search our weather history database for the weather conditions in past years. The results will help you decide how hot, cold, wet, or windy it might be!

Date:

Astronomy

Apr. 23, 2013 Rise Set
Actual Time 6:38 AM CDT 7:57 PM CDT
Civil Twilight 6:12 AM CDT 8:23 PM CDT
Nautical Twilight 5:41 AM CDT 8:54 PM CDT
Astronomical Twilight 5:08 AM CDT 9:27 PM CDT
Moon 5:57 PM CDT (4/23) 5:01 AM CDT (4/23)
Length of Visible Light 14h 10m
Length of Day
13h 18m
Waxing Gibbous, 94% of the Moon is Illuminated
Apr 23
Waxing Gibbous
Apr 25
Full
May 2
Last Quarter
May 9
New
May 17
First Quarter

Hourly Weather History & Observations

Time (CDT) Temp. Windchill Dew Point Humidity Pressure Visibility Wind Dir Wind Speed Gust Speed Precip Events Conditions
1:15 PM 73.4 °F - 59.0 °F 61% 29.94 in 10.0 mi SW 16.1 mph 21.9 mph N/A   Unknown
1:35 PM 71.6 °F - 60.8 °F 69% 29.93 in 10.0 mi SSW 16.1 mph 19.6 mph N/A   Overcast
1:55 PM 73.4 °F - 59.0 °F 61% 29.93 in 10.0 mi SSW 13.8 mph 19.6 mph N/A   Mostly Cloudy
2:36 PM 73.4 °F - 60.8 °F 65% 29.92 in 10.0 mi SW 10.4 mph - N/A   Unknown
2:55 PM 73.4 °F - 60.8 °F 65% 29.92 in 10.0 mi WSW 15.0 mph 19.6 mph N/A   Unknown
3:15 PM 73.4 °F - 59.0 °F 61% 29.92 in 10.0 mi West 13.8 mph 20.7 mph N/A   Scattered Clouds
3:35 PM 68.0 °F - 55.4 °F 64% 29.94 in 10.0 mi West 17.3 mph 23.0 mph N/A   Clear
4:15 PM 62.6 °F - 51.8 °F 68% 29.94 in 10.0 mi West 11.5 mph 20.7 mph N/A   Scattered Clouds
4:35 PM 60.8 °F - 50.0 °F 68% 29.94 in 10.0 mi West 13.8 mph 24.2 mph N/A   Mostly Cloudy
4:55 PM 59.0 °F - 50.0 °F 72% 29.95 in 10.0 mi West 13.8 mph 17.3 mph N/A   Overcast
5:15 PM 57.2 °F - 50.0 °F 77% 29.94 in 10.0 mi West 12.7 mph 18.4 mph N/A   Overcast
5:35 PM 55.4 °F - 48.2 °F 77% 29.95 in 10.0 mi WNW 13.8 mph 19.6 mph N/A   Overcast
5:55 PM 55.4 °F - 48.2 °F 77% 29.96 in 10.0 mi West 12.7 mph 17.3 mph N/A   Overcast
6:15 PM 53.6 °F - 46.4 °F 77% 29.97 in 10.0 mi WNW 12.7 mph 18.4 mph N/A   Overcast
6:35 PM 53.6 °F - 46.4 °F 77% 29.98 in 10.0 mi NW 12.7 mph - N/A   Overcast
6:55 PM 51.8 °F - 44.6 °F 76% 29.99 in 10.0 mi WNW 12.7 mph 19.6 mph N/A   Overcast
7:15 PM 50.0 °F - 42.8 °F 76% 30.00 in 10.0 mi WNW 12.7 mph 19.6 mph N/A   Overcast
7:35 PM 50.0 °F - 42.8 °F 76% 30.00 in 10.0 mi WNW 12.7 mph 19.6 mph N/A   Overcast
7:55 PM 46.4 °F 40.1 °F 41.0 °F 81% 30.01 in 10.0 mi NW 15.0 mph 19.6 mph N/A   Overcast
8:15 PM 46.4 °F 40.1 °F 41.0 °F 81% 30.01 in 10.0 mi NW 15.0 mph 20.7 mph N/A   Overcast
8:35 PM 46.4 °F 41.9 °F 41.0 °F 81% 30.02 in 10.0 mi NW 9.2 mph 18.4 mph N/A   Overcast
8:55 PM 46.4 °F 40.4 °F 39.2 °F 76% 30.03 in 10.0 mi NW 13.8 mph 20.7 mph N/A   Overcast
9:15 PM 44.6 °F 37.8 °F 39.2 °F 81% 30.04 in 10.0 mi NW 15.0 mph 18.4 mph N/A   Overcast
9:35 PM 44.6 °F 39.2 °F 37.4 °F 76% 30.04 in 10.0 mi NNW 10.4 mph 18.4 mph N/A   Overcast
9:55 PM 44.6 °F 39.2 °F 37.4 °F 76% 30.05 in 10.0 mi NW 10.4 mph - N/A   Overcast
10:15 PM 44.6 °F 39.7 °F 37.4 °F 76% 30.06 in 10.0 mi NW 9.2 mph - N/A   Overcast
10:35 PM 44.6 °F 38.4 °F 37.4 °F 76% 30.07 in 10.0 mi NW 12.7 mph 19.6 mph N/A   Overcast
10:55 PM 44.6 °F 39.2 °F 37.4 °F 76% 30.07 in 10.0 mi NW 10.4 mph 19.6 mph N/A   Overcast
11:15 PM 44.6 °F 38.8 °F 37.4 °F 76% 30.08 in 10.0 mi NW 11.5 mph - N/A   Overcast
11:55 PM 42.8 °F 35.4 °F 37.4 °F 81% 30.08 in 10.0 mi NW 15.0 mph - N/A   Overcast